Weather History for K06D - July, 2013

Change the Weather History Date:

Friday, July 26, 2013

  Actual Average (KRUG) Record (KRUG)
Temperature  
Mean Temperature 54 °F -  
Max Temperature 62 °F 82 °F 101 °F (1988)
Min Temperature 46 °F 56 °F 42 °F (1967)
Degree Days  
Heating Degree Days 11    
Growing Degree Days 4 (Base 50)    
Moisture  
Dew Point 47 °F    
Average Humidity 76    
Maximum Humidity 100    
Minimum Humidity 42    
Precipitation  
Precipitation 0.01 in - - ()
Sea Level Pressure  
Sea Level Pressure 30.27 in    
Wind  
Wind Speed 13 mph (North)    
Max Wind Speed 20 mph    
Max Gust Speed 28 mph    
Visibility 10 miles    
Events Rain    
Averages and records for this station are not official NWS values.
T = Trace of Precipitation, MM = Missing Value Source: NWS Daily Summary

Daily Weather History Graph

Daily Weather History Graph

Search for Another Location

Airport or City:

Trip Planner

Search our weather history database for the weather conditions in past years. The results will help you decide how hot, cold, wet, or windy it might be!

Date:

Astronomy

Jul. 26, 2013 Rise Set
Actual Time 6:04 AM CDT 9:24 PM CDT
Civil Twilight 5:25 AM CDT 10:03 PM CDT
Nautical Twilight 4:34 AM CDT 10:53 PM CDT
Astronomical Twilight 3:28 AM CDT 11:59 PM CDT
Moon 11:07 PM CDT 11:12 AM CDT
Length of Visible Light 16h 37m
Length of Day
15h 20m
Waning Gibbous, 80% of the Moon is Illuminated
Jul 26
Waning Gibbous
Jul 29
Last Quarter
Aug 6
New
Aug 14
First Quarter
Aug 20
Full

Hourly Weather History & Observations

Time (CDT) Temp. Windchill Dew Point Humidity Pressure Visibility Wind Dir Wind Speed Gust Speed Precip Events Conditions
12:15 AM 51.8 °F - 51.8 °F 100% 30.18 in 10.0 mi North 12.7 mph - N/A Rain Light Rain
12:35 AM 51.8 °F - 51.8 °F 100% 30.19 in 10.0 mi North 12.7 mph - 0.01 in Rain Light Rain
12:55 AM 51.8 °F - 51.8 °F 100% 30.19 in 10.0 mi North 11.5 mph - 0.01 in   Overcast
1:15 AM 51.8 °F - 51.8 °F 100% 30.19 in 10.0 mi NNW 12.7 mph - N/A   Mostly Cloudy
1:35 AM 51.8 °F - 51.8 °F 100% 30.20 in 10.0 mi NNW 13.8 mph - N/A   Partly Cloudy
1:55 AM 50.0 °F - 50.0 °F 100% 30.20 in 10.0 mi NNW 15.0 mph - N/A   Clear
2:15 AM 50.0 °F - 50.0 °F 100% 30.20 in 10.0 mi NNW 13.8 mph - N/A   Clear
2:35 AM 50.0 °F - 50.0 °F 100% 30.20 in 10.0 mi NNW 15.0 mph - N/A   Clear
2:55 AM 50.0 °F - 50.0 °F 100% 30.21 in 10.0 mi NNW 13.8 mph - N/A   Clear
3:15 AM 50.0 °F - 50.0 °F 100% 30.21 in 10.0 mi NNW 15.0 mph - N/A   Clear
3:35 AM 50.0 °F - 50.0 °F 100% 30.22 in 10.0 mi NNW 13.8 mph - N/A   Clear
3:55 AM 48.2 °F - 48.2 °F 100% 30.23 in 10.0 mi NNW 13.8 mph - N/A   Clear
4:15 AM 48.2 °F - 48.2 °F 100% 30.23 in 10.0 mi NNW 15.0 mph - N/A   Clear
4:35 AM 48.2 °F - 48.2 °F 100% 30.23 in 10.0 mi NNW 12.7 mph - N/A   Clear
4:55 AM 48.2 °F - 48.2 °F 100% 30.23 in 10.0 mi NNW 12.7 mph - N/A   Clear
5:15 AM 48.2 °F - 48.2 °F 100% 30.24 in 10.0 mi NNW 12.7 mph - N/A   Clear
5:35 AM 48.2 °F - 48.2 °F 100% 30.24 in 10.0 mi NNW 10.4 mph - N/A   Clear
5:55 AM 48.2 °F - 48.2 °F 100% 30.25 in 10.0 mi NNW 11.5 mph - N/A   Clear
6:15 AM 46.4 °F 41.9 °F 46.4 °F 100% 30.25 in 10.0 mi North 9.2 mph - N/A   Clear
6:35 AM 48.2 °F - 48.2 °F 100% 30.26 in 10.0 mi NNW 11.5 mph - N/A   Clear
6:55 AM 48.2 °F - 48.2 °F 100% 30.26 in 10.0 mi NNW 12.7 mph - N/A   Clear
7:15 AM 48.2 °F - 48.2 °F 100% 30.27 in 10.0 mi NNW 13.8 mph - N/A   Clear
7:35 AM 50.0 °F - 50.0 °F 100% 30.27 in 10.0 mi North 12.7 mph - N/A   Clear
7:55 AM 50.0 °F - 50.0 °F 100% 30.28 in 10.0 mi North 11.5 mph - N/A   Clear
8:15 AM 51.8 °F - 50.0 °F 94% 30.29 in 10.0 mi North 12.7 mph - N/A   Clear
8:35 AM 53.6 °F - 50.0 °F 88% 30.30 in 10.0 mi North 13.8 mph - N/A   Clear
8:55 AM 53.6 °F - 51.8 °F 94% 30.29 in 10.0 mi North 12.7 mph - N/A   Clear
9:15 AM 55.4 °F - 51.8 °F 88% 30.30 in 10.0 mi NNW 13.8 mph - N/A   Clear
9:35 AM 55.4 °F - 51.8 °F 88% 30.32 in 10.0 mi NNW 15.0 mph - N/A   Clear
9:55 AM 57.2 °F - 51.8 °F 82% 30.32 in 10.0 mi North 15.0 mph - N/A   Mostly Cloudy
10:15 AM 57.2 °F - 50.0 °F 77% 30.31 in 10.0 mi North 16.1 mph - N/A   Mostly Cloudy
10:35 AM 59.0 °F - 48.2 °F 67% 30.31 in 10.0 mi North 17.3 mph - N/A   Mostly Cloudy
10:55 AM 59.0 °F - 46.4 °F 63% 30.30 in 10.0 mi NNE 19.6 mph 25.3 mph N/A   Scattered Clouds
11:15 AM 59.0 °F - 48.2 °F 67% 30.30 in 10.0 mi NNE 18.4 mph 21.9 mph N/A   Scattered Clouds
11:35 AM 57.2 °F - 44.6 °F 63% 30.30 in 10.0 mi NNE 18.4 mph 24.2 mph N/A   Scattered Clouds
11:55 AM 59.0 °F - 44.6 °F 59% 30.30 in 10.0 mi NNE 18.4 mph 26.5 mph N/A   Partly Cloudy
12:15 PM 62.6 °F - 44.6 °F 52% 30.30 in 10.0 mi NNE 18.4 mph 27.6 mph N/A   Partly Cloudy
12:35 PM 59.0 °F - 44.6 °F 59% 30.31 in 10.0 mi North 16.1 mph 19.6 mph N/A   Mostly Cloudy
12:55 PM 59.0 °F - 44.6 °F 59% 30.31 in 10.0 mi North 15.0 mph - N/A   Mostly Cloudy
1:15 PM 59.0 °F - 44.6 °F 59% 30.31 in 10.0 mi North 13.8 mph - N/A   Mostly Cloudy
1:35 PM 59.0 °F - 44.6 °F 59% 30.31 in 10.0 mi North 18.4 mph - N/A   Mostly Cloudy
1:55 PM 60.8 °F - 44.6 °F 55% 30.31 in 10.0 mi North 17.3 mph 21.9 mph N/A   Mostly Cloudy
2:15 PM 60.8 °F - 42.8 °F 52% 30.30 in 10.0 mi North 16.1 mph 21.9 mph N/A   Scattered Clouds
2:35 PM 62.6 °F - 42.8 °F 48% 30.31 in 10.0 mi NNW 13.8 mph 21.9 mph N/A   Scattered Clouds
2:55 PM 62.6 °F - 42.8 °F 48% 30.30 in 10.0 mi North 17.3 mph 21.9 mph N/A   Scattered Clouds
3:15 PM 62.6 °F - 41.0 °F 45% 30.29 in 10.0 mi North 16.1 mph - N/A   Scattered Clouds
3:35 PM 62.6 °F - 41.0 °F 45% 30.29 in 10.0 mi North 16.1 mph 20.7 mph N/A   Scattered Clouds
3:55 PM 62.6 °F - 39.2 °F 42% 30.29 in 10.0 mi NNE 16.1 mph 21.9 mph N/A   Partly Cloudy
4:15 PM 62.6 °F - 42.8 °F 48% 30.29 in 10.0 mi NE 16.1 mph 19.6 mph N/A   Scattered Clouds
4:35 PM 62.6 °F - 41.0 °F 45% 30.29 in 10.0 mi NNE 15.0 mph 19.6 mph N/A   Scattered Clouds
4:55 PM 62.6 °F - 42.8 °F 48% 30.29 in 10.0 mi NNE 15.0 mph - N/A   Mostly Cloudy
5:15 PM 62.6 °F - 42.8 °F 48% 30.29 in 10.0 mi NNE 17.3 mph 20.7 mph N/A   Mostly Cloudy
5:35 PM 62.6 °F - 42.8 °F 48% 30.29 in 10.0 mi North 12.7 mph - N/A   Scattered Clouds
5:55 PM 60.8 °F - 41.0 °F 48% 30.29 in 10.0 mi North 13.8 mph - N/A   Mostly Cloudy
6:15 PM 62.6 °F - 41.0 °F 45% 30.28 in 10.0 mi NNE 16.1 mph 20.7 mph N/A   Mostly Cloudy
6:35 PM 60.8 °F - 41.0 °F 48% 30.29 in 10.0 mi North 12.7 mph - N/A   Scattered Clouds
6:55 PM 59.0 °F - 41.0 °F 51% 30.28 in 10.0 mi North 13.8 mph - N/A   Scattered Clouds
7:15 PM 59.0 °F - 42.8 °F 55% 30.28 in 10.0 mi North 10.4 mph - N/A   Scattered Clouds
7:35 PM 60.8 °F - 42.8 °F 52% 30.28 in 10.0 mi NNE 15.0 mph 19.6 mph N/A   Scattered Clouds
7:55 PM 59.0 °F - 41.0 °F 51% 30.28 in 10.0 mi NNE 11.5 mph 16.1 mph N/A   Clear
8:15 PM 59.0 °F - 42.8 °F 55% 30.28 in 10.0 mi NNE 11.5 mph - N/A   Clear
8:35 PM 59.0 °F - 44.6 °F 59% 30.28 in 10.0 mi NNE 9.2 mph - N/A   Clear
8:55 PM 57.2 °F - 46.4 °F 67% 30.28 in 10.0 mi NE 8.1 mph - N/A   Clear
9:15 PM 55.4 °F - 46.4 °F 72% 30.28 in 10.0 mi NNE 8.1 mph - N/A   Clear
9:35 PM 53.6 °F - 46.4 °F 77% 30.28 in 10.0 mi NNE 6.9 mph - N/A   Clear
9:55 PM 50.0 °F - 48.2 °F 94% 30.28 in 10.0 mi NNE 6.9 mph - N/A   Clear
10:15 PM 50.0 °F - 48.2 °F 94% 30.28 in 10.0 mi NNE 6.9 mph - N/A   Clear
10:35 PM 50.0 °F - 46.4 °F 87% 30.29 in 10.0 mi NE 8.1 mph - N/A   Clear
10:55 PM 50.0 °F - 46.4 °F 87% 30.29 in 10.0 mi NNE 5.8 mph - N/A   Scattered Clouds
11:15 PM 50.0 °F - 46.4 °F 87% 30.30 in 10.0 mi North 6.9 mph - N/A   Partly Cloudy
11:35 PM 48.2 °F - 46.4 °F 93% 30.30 in 10.0 mi North 6.9 mph - N/A   Clear
11:55 PM 48.2 °F - 46.4 °F 93% 30.30 in 10.0 mi North 5.8 mph - N/A   Clear